Regional Weather Roundup
Issued by NWS Newport/Morehead, NC

Current Version | Previous Version | Text Only | Print | Product List | Glossary Off
Versions: 1 2 3 4 5 6 7 8 9 10 11 12 13 14 15 16 17 18 19 20 21 22 23 24 25 26 27 28 29 30 31 32 33 34 35 36 37 38 39 40 41 42 43 44 45 46 47 48 49 50
000 ASUS42 KMHX 290624 RWRMHX WEATHER ROUNDUP FOR EASTERN NORTH CAROLINA NATIONAL WEATHER SERVICE NEWPORT/MOREHEAD CITY NC 200 AM EDT WED JUL 29 2015 NOTE: "FAIR" INDICATES FEW OR NO CLOUDS BELOW 12,000 FEET WITH NO SIGNIFICANT WEATHER AND/OR OBSTRUCTIONS TO VISIBILITY NCZ015>017-031-032-045>047-102-103-290700- NORTH COAST CITY SKY/WX TMP DP RH WIND PRES REMARKS EDENTON PTCLDY 77 70 77 S6 29.99F ELIZABETH CITY CLEAR 77 71 82 S6 30.00F KITTY HAWK CLEAR 75 69 80 CALM 30.00F MANTEO CLEAR 76 71 85 SE3 30.00F $$ NCZ045>047-081-094-103-104-290700- CENTRAL COAST CITY SKY/WX TMP DP RH WIND PRES REMARKS FRISCO PTCLDY 77 70 79 E5 30.01S SWANQUARTER N/A 73 N/A N/A E2 29.97S $$ NCZ095-097-098-100-101-290700- SOUTHERN COAST CITY SKY/WX TMP DP RH WIND PRES REMARKS BEAUFORT MOCLDY 79 72 79 VRB3 29.99S CEDAR ISLAND N/A 81 N/A N/A E14 30.03S JACKSONVILLE PTCLDY 78 71 79 E8 29.99S PINEY ISLAND PTCLDY N/A N/A N/A E8 29.99F WILMINGTON PTCLDY 73 71 93 NE3 29.98S $$ NCZ011>013-027>030-043-044-078>080-089-090>093-098-290700- COASTAL PLAIN CITY SKY/WX TMP DP RH WIND PRES REMARKS AHOSKIE CLEAR 71 68 91 CALM 30.01S CLINTON MOCLDY 75 72 90 CALM 30.00F ELIZABETHTOWN PTCLDY 75 71 88 CALM 30.00S GOLDSBORO NOT AVBL GREENVILLE CLOUDY 77 72 83 S3 30.01F HAVELOCK MOCLDY 75 70 84 CALM 30.01S KENANSVILLE MOCLDY 72 70 93 CALM 30.01S KINSTON MOCLDY 75 72 89 CALM 30.01S NEW BERN CLOUDY 74 71 91 CALM 30.01F RICHLANDS PTCLDY 72 64 78 CALM 30.00F ROCKY MOUNT MOCLDY 76 72 87 S3 30.00F WASHINGTON MOCLDY 73 71 91 CALM 30.01F WHITEVILLE PTCLDY 73 70 92 CALM 29.99S $$ AMZ130-135-150-152-154-156-158-170-250-252-270-ANZ085-086-088-633-658-670-290700- MARINE OBSERVATIONS STATION/POSITION TIME TEMP WIND PRES WAVE SWELL AIR SEA DIR/SP/G HT/PER HT/PER (UTC) (F) (DEG/KT/KT) (MB) (FT/S) (FT/S) CHESAPEAKE LIGHT 0600 80 180/ 14/ 15 1016.4 64 E VA BEACH 0550 80 81 170/ 8/ 10 1016.2 3/ 6 2/ 6 DUCK 0600 77 67 150/ 6/ 6 1015.2 2 E DUCK 0511 80 N/A 2/11 OREGON INLET 0600 78 82 100/ 5/ 7 1015.9 13E OREGON INLT 0600 81 N/A 2/11 2/11 HATTERAS CG 0600 81 83 110/ 8/ 11 1015.6 DIAMOND BUOY NOT AVBL CAPE LOOKOUT 0600 81 70/ 12/ 14 1015.3 BEAUFORT LAB 0600 80 82 80/ 3/ 6 1014.9 30 SE NEW RVR IN NOT AVBL 27 SE WRIGHTSVLE 0600 78 81 90/ 10/ 12 N/A 5 SE WRIGHTSVLE 0508 81 81 100/ 10/ 14 1015.5 225 S CAPE HAT 0550 80 81 230/ 14/ 17 1014.0 6/ 7 3/ 7 41 SE CHARLESTON 0550 83 84 60/ 8/ 10 1013.9 3/ 6 2/ 6 $$

USA.gov is the U.S. government's official web portal to all federal, state and local government web resources and services.